Regional Weather Roundup
Issued by NWS

Home | Current Version | Previous Version | Text Only | Print | Product List | Glossary Off
Versions: 1 2 3 4 5 6 7 8 9 10 11 12 13 14 15 16 17 18 19 20 21 22 23 24 25 26 27 28 29 30 31 32 33 34 35 36 37 38 39 40 41 42 43 44 45 46 47 48 49 50

000
ASUS43 KBIS 271710
RWRND

NORTH DAKOTA REGIONAL WEATHER ROUNDUP
NATIONAL WEATHER SERVICE BISMARCK ND
1100 AM CST THU NOV 27 2014

NOTE: "FAIR" INDICATES FEW OR NO CLOUDS BELOW 12,000 FEET WITH NO
SIGNIFICANT WEATHER AND/OR OBSTRUCTIONS TO VISIBILITY.


NDZ001>003-009>011-017-271800-
NORTHWEST NORTH DAKOTA

CITY           SKY/WX    TMP DP  RH WIND       PRES   REMARKS
WILLISTON      CLOUDY    20  12  71 SE8       30.05F WCI  10
MINOT          PTSUNNY   10   4  76 SE10      30.18F WCI  -4
MINOT AFB      CLOUDY     6   4  90 SE8       30.19F WCI  -7
$$

NDZ018>021-031>035-040>046-271800-
SOUTHWEST NORTH DAKOTA

CITY           SKY/WX    TMP DP  RH WIND       PRES   REMARKS
BISMARCK       CLOUDY     5   1  83 SE9       30.27F WCI  -9
DICKINSON      CLOUDY    18  14  84 SE21G26   30.03F WCI   1
GARRISON         N/A     10   8  92 S12       30.19F WCI  -5
HETTINGER ARPT CLOUDY    17  13  84 SE12      30.07F WCI   4
$$

NDZ004>008-012>016-024-026-027-054-271800-
NORTHEAST NORTH DAKOTA

CITY           SKY/WX    TMP DP  RH WIND       PRES   REMARKS
GRAND FORKS    MOSUNNY    1  -5  75 S12       30.46F WCI -16
GRND FRKS AFB  SUNNY      2  -6  68 S10       30.44F WCI -14
DEVILS LAKE    SUNNY      1  -9  60 S12       30.30F WCI -15
$$

NDZ022-023-025-028>030-036>039-047>053-271800-
SOUTHEAST NORTH DAKOTA

CITY           SKY/WX    TMP DP  RH WIND       PRES   REMARKS
FARGO          SUNNY      0  -6  76 S5        30.48F WCI -10
JAMESTOWN      MOSUNNY   -1  -9  68 S13       30.34F WCI -19
$$



USA.gov is the U.S. government's official web portal to all federal, state and local government web resources and services.